Time,TemperatureF,DewpointF,PressureIn,WindDirection,WindDirectionDegrees,WindSpeedMPH,WindSpeedGustMPH,Humidity,HourlyPrecipIn,Conditions,Clouds,dailyrainin,SoftwareType,DateUTC
2013-01-10 00:03:00,31.0,23.0,30.33,West,270,0.0,0.0,71,0.00,,,0.00,,2013-01-10 05:03:00,
2013-01-10 00:12:00,31.0,23.0,30.33,West,270,0.0,0.0,71,0.00,,,0.00,,2013-01-10 05:12:00,
2013-01-10 00:22:00,31.0,23.0,30.33,NNW,338,0.0,0.0,71,0.00,,,0.00,,2013-01-10 05:22:00,
2013-01-10 00:33:00,30.0,22.0,30.33,West,270,0.0,0.0,71,0.00,,,0.00,,2013-01-10 05:33:00,
2013-01-10 00:42:00,30.0,22.0,30.33,West,270,0.0,0.0,71,0.00,,,0.00,,2013-01-10 05:42:00,
2013-01-10 00:53:00,30.0,22.0,30.32,NW,316,0.0,0.0,71,0.00,,,0.00,,2013-01-10 05:53:00,
2013-01-10 01:02:00,30.0,22.0,30.32,NW,315,0.0,0.0,72,0.00,,,0.00,,2013-01-10 06:02:00,
2013-01-10 01:12:00,30.0,22.0,30.32,NW,315,0.0,0.0,72,0.00,,,0.00,,2013-01-10 06:12:00,
2013-01-10 01:22:00,29.0,21.0,30.32,WNW,292,0.0,0.0,72,0.00,,,0.00,,2013-01-10 06:22:00,
2013-01-10 01:32:00,28.0,20.0,30.32,NW,315,0.0,0.0,73,0.00,,,0.00,,2013-01-10 06:32:00,
2013-01-10 01:42:00,28.0,20.0,30.32,NW,315,0.0,0.0,73,0.00,,,0.00,,2013-01-10 06:42:00,
2013-01-10 01:52:00,27.0,20.0,30.32,WNW,292,0.0,0.0,73,0.00,,,0.00,,2013-01-10 06:52:00,
2013-01-10 02:02:00,26.0,19.0,30.31,WNW,292,0.0,0.0,74,0.00,,,0.00,,2013-01-10 07:02:00,
2013-01-10 02:12:00,26.0,19.0,30.31,WNW,292,0.0,0.0,74,0.00,,,0.00,,2013-01-10 07:12:00,
2013-01-10 02:22:00,25.0,18.0,30.31,WNW,292,0.0,0.0,75,0.00,,,0.00,,2013-01-10 07:22:00,
2013-01-10 02:32:00,25.0,19.0,30.30,WNW,292,0.0,0.0,76,0.00,,,0.00,,2013-01-10 07:32:00,
2013-01-10 02:42:00,25.0,19.0,30.30,WNW,292,0.0,0.0,76,0.00,,,0.00,,2013-01-10 07:42:00,
2013-01-10 02:52:00,24.0,18.0,30.30,WSW,248,0.0,0.0,76,0.00,,,0.00,,2013-01-10 07:52:00,
2013-01-10 03:01:00,24.0,18.0,30.31,ESE,112,0.0,0.0,77,0.00,,,0.00,,2013-01-10 08:01:00,
2013-01-10 03:12:00,24.0,18.0,30.31,ESE,112,0.0,0.0,77,0.00,,,0.00,,2013-01-10 08:12:00,
2013-01-10 03:22:00,23.0,17.0,30.28,South,180,0.0,0.0,77,0.00,,,0.00,,2013-01-10 08:22:00,
2013-01-10 03:32:00,23.0,17.0,30.29,West,270,0.0,0.0,78,0.00,,,0.00,,2013-01-10 08:32:00,
2013-01-10 03:42:00,23.0,17.0,30.29,West,270,0.0,0.0,78,0.00,,,0.00,,2013-01-10 08:42:00,
2013-01-10 03:53:00,22.0,16.0,30.29,South,180,0.0,0.0,78,0.00,,,0.00,,2013-01-10 08:53:00,
2013-01-10 04:02:00,22.0,16.0,30.30,WSW,248,0.0,0.0,79,0.00,,,0.00,,2013-01-10 09:02:00,
2013-01-10 04:12:00,22.0,16.0,30.30,WSW,248,0.0,0.0,79,0.00,,,0.00,,2013-01-10 09:12:00,
2013-01-10 04:22:00,22.0,16.0,30.32,WSW,248,0.0,0.0,79,0.00,,,0.00,,2013-01-10 09:22:00,
2013-01-10 04:32:00,22.0,17.0,30.29,ESE,112,0.0,0.0,80,0.00,,,0.00,,2013-01-10 09:32:00,
2013-01-10 04:42:00,22.0,17.0,30.29,ESE,112,0.0,0.0,80,0.00,,,0.00,,2013-01-10 09:42:00,
2013-01-10 04:52:00,22.0,17.0,30.29,South,180,0.0,0.0,81,0.00,,,0.00,,2013-01-10 09:52:00,
2013-01-10 05:02:00,24.0,19.0,30.29,SSE,158,0.0,0.0,81,0.00,,,0.00,,2013-01-10 10:02:00,
2013-01-10 05:12:00,24.0,19.0,30.29,SSE,158,0.0,0.0,81,0.00,,,0.00,,2013-01-10 10:12:00,
2013-01-10 05:22:00,24.0,19.0,30.30,SSE,158,0.0,0.0,81,0.00,,,0.00,,2013-01-10 10:22:00,
2013-01-10 05:32:00,25.0,19.0,30.31,SSE,158,0.0,0.0,79,0.00,,,0.00,,2013-01-10 10:32:00,
2013-01-10 05:42:00,25.0,19.0,30.31,SSE,158,0.0,0.0,79,0.00,,,0.00,,2013-01-10 10:42:00,
2013-01-10 05:52:00,25.0,19.0,30.32,South,180,0.0,0.0,79,0.00,,,0.00,,2013-01-10 10:52:00,
2013-01-10 06:02:00,25.0,19.0,30.34,SSE,158,0.0,0.0,78,0.00,,,0.00,,2013-01-10 11:02:00,
2013-01-10 06:12:00,25.0,19.0,30.34,SSE,158,0.0,0.0,78,0.00,,,0.00,,2013-01-10 11:12:00,
2013-01-10 06:22:00,25.0,19.0,30.33,ESE,112,0.0,0.0,78,0.00,,,0.00,,2013-01-10 11:22:00,
2013-01-10 06:32:00,24.0,18.0,30.33,South,180,0.0,0.0,78,0.00,,,0.00,,2013-01-10 11:32:00,
2013-01-10 06:42:00,24.0,18.0,30.33,South,180,0.0,0.0,78,0.00,,,0.00,,2013-01-10 11:42:00,
2013-01-10 06:53:00,24.0,18.0,30.34,West,270,0.0,0.0,77,0.00,,,0.00,,2013-01-10 11:53:00,
2013-01-10 07:02:00,23.0,17.0,30.34,SSW,202,0.0,0.0,78,0.00,,,0.00,,2013-01-10 12:02:00,
2013-01-10 07:12:00,23.0,17.0,30.34,SSW,202,0.0,0.0,78,0.00,,,0.00,,2013-01-10 12:12:00,
2013-01-10 07:22:00,25.0,19.0,30.33,SW,225,0.0,0.0,77,0.00,,,0.00,,2013-01-10 12:22:00,
2013-01-10 07:32:00,26.0,19.0,30.32,SSW,202,0.0,0.0,76,0.00,,,0.00,,2013-01-10 12:32:00,
2013-01-10 07:42:00,26.0,19.0,30.32,SSW,202,0.0,0.0,76,0.00,,,0.00,,2013-01-10 12:42:00,
2013-01-10 07:53:00,26.0,19.0,30.32,West,270,0.0,0.0,74,0.00,,,0.00,,2013-01-10 12:53:00,
2013-01-10 08:02:00,27.0,20.0,30.33,West,270,0.0,0.0,73,0.00,,,0.00,,2013-01-10 13:02:00,
2013-01-10 08:12:00,27.0,20.0,30.33,West,270,0.0,0.0,73,0.00,,,0.00,,2013-01-10 13:12:00,
2013-01-10 08:22:00,27.0,19.0,30.32,SSE,158,0.0,0.0,72,0.00,,,0.00,,2013-01-10 13:22:00,
2013-01-10 08:32:00,27.0,19.0,30.32,SW,225,0.0,0.0,72,0.00,,,0.00,,2013-01-10 13:32:00,
2013-01-10 08:42:00,27.0,19.0,30.32,SW,225,0.0,0.0,72,0.00,,,0.00,,2013-01-10 13:42:00,
2013-01-10 08:53:00,27.0,19.0,30.32,SSW,202,0.0,1.0,71,0.00,,,0.00,,2013-01-10 13:53:00,
2013-01-10 09:02:00,27.0,19.0,30.32,South,180,0.0,0.0,70,0.00,,,0.00,,2013-01-10 14:02:00,
2013-01-10 09:12:00,27.0,19.0,30.32,South,180,0.0,0.0,70,0.00,,,0.00,,2013-01-10 14:12:00,
2013-01-10 09:22:00,28.0,19.0,30.31,SSW,202,0.0,0.0,69,0.00,,,0.00,,2013-01-10 14:22:00,
2013-01-10 09:32:00,28.0,19.0,30.30,SSW,200,0.0,39.0,68,0.00,,,0.00,,2013-01-10 14:32:00,
2013-01-10 09:43:00,28.0,19.0,30.30,SSW,200,0.0,39.0,68,0.00,,,0.00,,2013-01-10 14:43:00,
2013-01-10 09:53:00,29.0,20.0,30.30,SE,135,0.0,0.0,68,0.00,,,0.00,,2013-01-10 14:53:00,
2013-01-10 10:03:00,29.0,19.0,30.30,SSE,158,0.0,0.0,67,0.00,,,0.00,,2013-01-10 15:03:00,
2013-01-10 10:12:00,29.0,19.0,30.30,SSE,158,0.0,0.0,67,0.00,,,0.00,,2013-01-10 15:12:00,
2013-01-10 10:22:00,30.0,20.0,30.29,SW,225,0.0,0.0,66,0.00,,,0.00,,2013-01-10 15:22:00,
2013-01-10 10:32:00,31.0,20.0,30.29,SSW,202,0.0,0.0,63,0.00,,,0.00,,2013-01-10 15:32:00,
2013-01-10 10:43:00,31.0,20.0,30.29,SSW,202,0.0,0.0,63,0.00,,,0.00,,2013-01-10 15:43:00,
2013-01-10 10:53:00,32.0,20.0,30.29,SW,216,0.0,0.0,62,0.00,,,0.00,,2013-01-10 15:53:00,
2013-01-10 11:02:00,34.0,22.0,30.28,South,186,0.0,0.0,60,0.00,,,0.00,,2013-01-10 16:02:00,
2013-01-10 11:13:00,34.0,22.0,30.28,South,186,0.0,0.0,60,0.00,,,0.00,,2013-01-10 16:13:00,
2013-01-10 11:23:00,35.0,22.0,30.28,South,180,0.0,0.0,58,0.00,,,0.00,,2013-01-10 16:23:00,
2013-01-10 11:33:00,36.0,21.0,30.27,SW,225,0.0,0.0,55,0.00,,,0.00,,2013-01-10 16:33:00,
2013-01-10 11:43:00,36.0,21.0,30.27,SW,225,0.0,0.0,55,0.00,,,0.00,,2013-01-10 16:43:00,
2013-01-10 11:53:00,38.0,22.0,30.27,SSE,158,0.0,0.0,52,0.00,,,0.00,,2013-01-10 16:53:00,
2013-01-10 12:03:00,39.0,22.0,30.26,SE,135,0.0,0.0,50,0.00,,,0.00,,2013-01-10 17:03:00,
2013-01-10 12:12:00,39.0,22.0,30.26,SE,135,0.0,0.0,50,0.00,,,0.00,,2013-01-10 17:12:00,
2013-01-10 12:22:00,40.0,23.0,30.25,South,180,0.0,0.0,50,0.00,,,0.00,,2013-01-10 17:22:00,
2013-01-10 12:33:00,40.0,22.0,30.24,SSE,158,0.0,0.0,49,0.00,,,0.00,,2013-01-10 17:33:00,
2013-01-10 12:42:00,40.0,22.0,30.24,SSE,158,0.0,0.0,49,0.00,,,0.00,,2013-01-10 17:42:00,
2013-01-10 12:53:00,41.0,23.0,30.23,South,180,0.0,0.0,48,0.00,,,0.00,,2013-01-10 17:53:00,
2013-01-10 13:03:00,41.0,22.0,30.22,SSE,158,0.0,0.0,46,0.00,,,0.00,,2013-01-10 18:03:00,
2013-01-10 13:12:00,42.0,23.0,30.20,SE,136,0.0,0.0,46,0.00,,,0.00,,2013-01-10 18:12:00,
2013-01-10 13:23:00,42.0,23.0,30.20,SE,136,0.0,0.0,46,0.00,,,0.00,,2013-01-10 18:23:00,
2013-01-10 13:33:00,42.0,22.0,30.19,South,180,0.0,0.0,45,0.00,,,0.00,,2013-01-10 18:33:00,
2013-01-10 13:43:00,42.0,22.0,30.19,SSE,158,0.0,0.0,44,0.00,,,0.00,,2013-01-10 18:43:00,
2013-01-10 13:53:00,42.0,22.0,30.19,SSE,158,0.0,0.0,44,0.00,,,0.00,,2013-01-10 18:53:00,
2013-01-10 14:03:00,42.0,22.0,30.17,ENE,69,0.0,0.0,44,0.00,,,0.00,,2013-01-10 19:03:00,
2013-01-10 14:13:00,43.0,22.0,30.16,ESE,112,0.0,0.0,43,0.00,,,0.00,,2013-01-10 19:13:00,
2013-01-10 14:23:00,43.0,22.0,30.16,ESE,112,0.0,0.0,43,0.00,,,0.00,,2013-01-10 19:23:00,
2013-01-10 14:33:00,43.0,20.0,30.16,East,90,0.0,0.0,40,0.00,,,0.00,,2013-01-10 19:33:00,
2013-01-10 14:43:00,43.0,20.0,30.16,East,90,0.0,0.0,40,0.00,,,0.00,,2013-01-10 19:43:00,
2013-01-10 14:53:00,44.0,22.0,30.16,South,180,0.0,0.0,42,0.00,,,0.00,,2013-01-10 19:53:00,
2013-01-10 15:02:00,44.0,22.0,30.16,SSE,158,0.0,0.0,42,0.00,,,0.00,,2013-01-10 20:02:00,
2013-01-10 15:12:00,43.0,20.0,30.15,SSE,158,0.0,0.0,40,0.00,,,0.00,,2013-01-10 20:12:00,
2013-01-10 15:23:00,43.0,20.0,30.15,SSE,158,0.0,0.0,40,0.00,,,0.00,,2013-01-10 20:23:00,
2013-01-10 15:33:00,43.0,21.0,30.15,ENE,68,0.0,0.0,41,0.00,,,0.00,,2013-01-10 20:33:00,
2013-01-10 15:42:00,43.0,21.0,30.15,ENE,68,0.0,0.0,41,0.00,,,0.00,,2013-01-10 20:42:00,
2013-01-10 15:53:00,43.0,22.0,30.14,ESE,112,0.0,0.0,42,0.00,,,0.00,,2013-01-10 20:53:00,
2013-01-10 16:03:00,42.0,21.0,30.13,SE,135,0.0,0.0,43,0.00,,,0.00,,2013-01-10 21:03:00,
2013-01-10 16:12:00,42.0,21.0,30.13,SSE,158,0.0,0.0,42,0.10,,,0.10,,2013-01-10 21:12:00,
2013-01-10 16:23:00,42.0,21.0,30.13,SSE,158,0.0,0.0,42,0.10,,,0.10,,2013-01-10 21:23:00,
2013-01-10 16:33:00,41.0,20.0,30.13,SSE,157,0.0,0.0,43,0.10,,,0.10,,2013-01-10 21:33:00,
2013-01-10 16:42:00,41.0,20.0,30.13,SSE,157,0.0,0.0,43,0.10,,,0.10,,2013-01-10 21:42:00,
2013-01-10 16:53:00,40.0,19.0,30.13,SE,135,0.0,0.0,43,0.10,,,0.10,,2013-01-10 21:53:00,
2013-01-10 17:03:00,39.0,18.0,30.12,SW,225,0.0,0.0,43,0.10,,,0.10,,2013-01-10 22:03:00,
2013-01-10 17:12:00,38.0,18.0,30.13,SSE,158,0.0,0.0,44,0.00,,,0.10,,2013-01-10 22:12:00,
2013-01-10 17:25:00,38.0,18.0,30.13,SSE,158,0.0,0.0,44,0.00,,,0.10,,2013-01-10 22:25:00,
2013-01-10 17:33:00,38.0,19.0,30.14,SE,135,0.0,0.0,45,0.00,,,0.10,,2013-01-10 22:33:00,
2013-01-10 17:43:00,38.0,19.0,30.14,SE,135,0.0,0.0,45,0.00,,,0.10,,2013-01-10 22:43:00,
2013-01-10 18:02:00,37.0,19.0,30.13,ESE,112,0.0,0.0,48,0.00,,,0.10,,2013-01-10 23:02:00,
2013-01-10 18:12:00,36.0,19.0,30.13,SE,146,0.0,0.0,50,0.00,,,0.10,,2013-01-10 23:12:00,
2013-01-10 18:23:00,36.0,19.0,30.13,SE,146,0.0,0.0,50,0.00,,,0.10,,2013-01-10 23:23:00,
2013-01-10 18:33:00,36.0,20.0,30.13,ENE,73,0.0,0.0,52,0.00,,,0.10,,2013-01-10 23:33:00,
2013-01-10 18:43:00,36.0,20.0,30.13,ENE,73,0.0,0.0,52,0.00,,,0.10,,2013-01-10 23:43:00,
2013-01-10 18:53:00,35.0,20.0,30.13,ESE,112,0.0,0.0,53,0.00,,,0.10,,2013-01-10 23:53:00,
2013-01-10 19:02:00,35.0,21.0,30.12,SSW,202,0.0,0.0,56,0.00,,,0.10,,2013-01-11 00:02:00,
2013-01-10 19:12:00,34.0,21.0,30.11,ESE,112,0.0,0.0,59,0.00,,,0.10,,2013-01-11 00:12:00,
2013-01-10 19:23:00,34.0,21.0,30.11,ESE,112,0.0,0.0,59,0.00,,,0.10,,2013-01-11 00:23:00,
2013-01-10 19:33:00,34.0,22.0,30.09,SSE,158,0.0,0.0,60,0.00,,,0.10,,2013-01-11 00:33:00,
2013-01-10 19:42:00,34.0,22.0,30.09,SSE,158,0.0,0.0,60,0.00,,,0.10,,2013-01-11 00:42:00,
2013-01-10 19:53:00,34.0,22.0,30.09,East,90,0.0,0.0,61,0.00,,,0.10,,2013-01-11 00:53:00,
2013-01-10 20:03:00,33.0,21.0,30.08,ESE,112,0.0,0.0,62,0.00,,,0.10,,2013-01-11 01:03:00,
2013-01-10 20:12:00,33.0,22.0,30.07,East,90,0.0,0.0,63,0.00,,,0.10,,2013-01-11 01:12:00,
2013-01-10 20:23:00,33.0,22.0,30.07,East,90,0.0,0.0,63,0.00,,,0.10,,2013-01-11 01:23:00,
2013-01-10 20:33:00,32.0,22.0,30.06,ENE,68,0.0,0.0,65,0.00,,,0.10,,2013-01-11 01:33:00,
2013-01-10 20:43:00,32.0,22.0,30.06,ENE,68,0.0,0.0,65,0.00,,,0.10,,2013-01-11 01:43:00,
2013-01-10 20:53:00,32.0,22.0,30.05,SE,135,0.0,0.0,67,0.00,,,0.10,,2013-01-11 01:53:00,
2013-01-10 21:02:00,32.0,23.0,30.04,ESE,112,0.0,0.0,69,0.00,,,0.10,,2013-01-11 02:02:00,
2013-01-10 21:13:00,32.0,23.0,30.04,ESE,112,0.0,0.0,69,0.00,,,0.10,,2013-01-11 02:13:00,
2013-01-10 21:23:00,32.0,24.0,30.03,SE,135,0.0,0.0,71,0.00,,,0.10,,2013-01-11 02:23:00,
2013-01-10 21:33:00,32.0,24.0,30.02,South,180,0.0,0.0,72,0.00,,,0.10,,2013-01-11 02:33:00,
2013-01-10 21:43:00,32.0,24.0,30.02,South,180,0.0,0.0,72,0.00,,,0.10,,2013-01-11 02:43:00,
2013-01-10 21:54:00,33.0,25.0,30.00,SE,135,0.0,0.0,72,0.00,,,0.10,,2013-01-11 02:54:00,
2013-01-10 22:02:00,33.0,25.0,29.99,South,180,0.0,0.0,73,0.00,,,0.10,,2013-01-11 03:02:00,
2013-01-10 22:12:00,33.0,25.0,29.98,NE,45,0.0,0.0,72,0.00,,,0.10,,2013-01-11 03:12:00,
2013-01-10 22:23:00,33.0,25.0,29.98,NE,45,0.0,0.0,72,0.00,,,0.10,,2013-01-11 03:23:00,
2013-01-10 22:33:00,34.0,26.0,29.96,SE,135,0.0,0.0,71,0.00,,,0.10,,2013-01-11 03:33:00,
2013-01-10 22:43:00,34.0,26.0,29.96,SE,135,0.0,0.0,71,0.00,,,0.10,,2013-01-11 03:43:00,
2013-01-10 22:53:00,35.0,26.0,29.96,SSE,158,0.0,0.0,68,0.00,,,0.10,,2013-01-11 03:53:00,
2013-01-10 23:02:00,36.0,26.0,29.93,SE,135,0.0,0.0,66,0.00,,,0.10,,2013-01-11 04:02:00,
2013-01-10 23:12:00,36.0,26.0,29.93,SE,135,0.0,0.0,66,0.00,,,0.10,,2013-01-11 04:12:00,
2013-01-10 23:22:00,36.0,25.0,29.92,North,0,0.0,0.0,65,0.00,,,0.10,,2013-01-11 04:22:00,
2013-01-10 23:33:00,36.0,25.0,29.90,SSE,158,0.0,0.0,65,0.00,,,0.10,,2013-01-11 04:33:00,
2013-01-10 23:42:00,36.0,25.0,29.90,SSE,158,0.0,0.0,65,0.00,,,0.10,,2013-01-11 04:42:00,
2013-01-10 23:53:00,37.0,26.0,29.90,NE,45,0.0,0.0,64,0.00,,,0.10,,2013-01-11 04:53:00,